Regional Weather Roundup
Issued by NWS

Home | Current Version | Previous Version | Graphics & Text | Print | Product List | Glossary Off
Versions: 1 2 3 4 5 6 7 8 9 10 11 12 13 14 15 16 17 18 19 20 21 22 23 24 25 26 27 28 29 30 31 32 33 34 35 36 37 38 39 40 41 42 43 44 45 46 47 48 49 50

000
ASUS45 KPSR 210810
RWRAZ

ARIZONA HOURLY REGIONAL WEATHER ROUNDUP
NATIONAL WEATHER SERVICE PHOENIX AZ
100 AM MST SAT APR 21 2018

NOTE: FAIR INDICATES FEW OR NO CLOUDS BELOW 12,000 FEET WITH NO
SIGNIFICANT WEATHER AND/OR OBSTRUCTIONS TO VISIBILITY.

AZZ001>003-036-210900-
NORTHWEST ARIZONA

CITY           SKY/WX    TMP DP  RH WIND       PRES   REMARKS
BULLHEAD CITY  CLEAR     72  27  18 E5        30.00S
KINGMAN        CLEAR     55  21  26 SE12      30.13R
$$

AZZ004>008-015-016-018-210900-
NORTH CENTRAL ARIZONA

CITY           SKY/WX    TMP DP  RH WIND       PRES   REMARKS
GRAND CANYON   CLEAR     28  27  96 E3        30.22S
WILLIAMS       PTCLDY    28  25  86 SE5       30.21S WCI  23
PRESCOTT       CLEAR     41  28  60 CALM      30.18S
FLAGSTAFF      CLEAR     27  24  89 CALM      30.23R
PAYSON         CLEAR     41  28  60 NE5       30.18F
PAGE           CLEAR     46  38  73 CALM      30.12R
$$

AZZ009>014-017-210900-
NORTHEAST ARIZONA

CITY           SKY/WX    TMP DP  RH WIND       PRES   REMARKS
WINSLOW        CLEAR     35  31  85 SW6       30.18R WCI  30
SAINT JOHNS    CLEAR     35  33  92 S5        30.17S WCI  31
WINDOW ROCK    CLEAR     30  27  88 CALM      30.15R
SHOW LOW       CLEAR     32  30  93 S10       30.22R WCI  24
$$

AZZ540-542>544-546-548-210900-
GREATER PHOENIX AREA

CITY           SKY/WX    TMP DP  RH WIND       PRES   REMARKS
PHOENIX        CLEAR     67  31  26 SE9       30.03R
BUCKEYE        CLEAR     59  25  27 NE5       30.04S
LUKE AFB       CLEAR     59  38  46 NW5       30.03S
DEER VALLEY    CLEAR     64  31  28 E6        30.05R
SCOTTSDALE     CLEAR     63  33  32 CALM      30.06R
MESA-GATEWAY   CLEAR     58  29  33 SE7       30.07R
$$

AZZ539-553-210900-
SOUTHWEST MARICOPA COUNTY AND PINAL COUNTY

CITY           SKY/WX    TMP DP  RH WIND       PRES   REMARKS
CASA GRANDE    CLEAR     59  26  28 NE6       30.07R
GILA BEND      FAIR      62  21  21 SE7       30.03R
$$

AZZ503-504-507>509-210900-
SOUTHEAST ARIZONA

CITY           SKY/WX    TMP DP  RH WIND       PRES   REMARKS
TUCSON         CLEAR     58  26  29 S3        30.11F
DAVIS-MONTHAN  CLEAR     54  24  31 S5        30.10S
NOGALES        CLEAR     52  24  33 NE6       30.13S
SIERRA VISTA   CLEAR     49  21  33 NW5       30.18R
DOUGLAS        CLEAR     44  20  38 NW7       30.15F
SAFFORD        CLEAR     53  25  33 NW8       30.10R
$$

AZZ532-210900-
SOUTHWEST ARIZONA

CITY           SKY/WX    TMP DP  RH WIND       PRES   REMARKS
YUMA           CLEAR     63  44  50 CALM      30.02R
$$

CAZ041-043-047-048-061-525>527-560>570-210900-
SOUTHERN CALIFORNIA

CITY           SKY/WX    TMP DP  RH WIND       PRES   REMARKS
DOWNTOWN L.A.  CLEAR     57  50  77 CALM      30.09F
L.A. AIRPORT   CLEAR     58  52  80 SW5       30.10F
SAN DIEGO      PTCLDY    59  54  83 CALM      30.11F
BURBANK        CLEAR     58  51  78 CALM      30.09F
ONTARIO        CLEAR     56  42  59 CALM      30.09F
RIVERSIDE      CLEAR     56  43  61 E3        30.10F
PALM SPRINGS   CLEAR     69  40  34 CALM      30.03R
EL CENTRO NAS  CLEAR     68  37  32 W5        30.01F
IMPERIAL       CLEAR     65  41  41 SW3       29.99F
BLYTHE         CLEAR     68  28  22 W3        30.01R
NEEDLES        CLEAR     73  25  16 CALM      30.01R
$$

NVZ020-UTZ003-210900-
SOUTHERN NEVADA-UTAH

CITY           SKY/WX    TMP DP  RH WIND       PRES   REMARKS
LAS VEGAS      CLEAR     66  34  30 N9        30.07R
SALT LAKE CITY PTCLDY    52  39  61 CALM      30.11R
$$

NMZ009-TXZ055-210900-
NEW MEXICO-WEST TEXAS

CITY           SKY/WX    TMP DP  RH WIND       PRES   REMARKS
ALBUQUERQUE    PTCLDY    42  34  73 W5        30.07F
EL PASO        PTCLDY    59  21  23 NW17G33   30.03R
$$


........................KEY........................
SKY/WX - SKY CONDITION/WEATHER
TMP    - TEMPERATURE IN FAHRENHEIT
DP     - DEW POINT IN FAHRENHEIT
RH     - RELATIVE HUMIDITY IN PERCENT
WIND   - DIRECTION AND SPEED IN MILES PER HOUR (MPH)
VRB    - VARIABLE WIND DIRECTION
PRES   - MEAN SEA LEVEL PRESSURE IN INCHES OF MERCURY
         F - FALLING PRESSURE   R - RISING PRESSURE
         S - STEADY PRESSURE
VSB    - VISIBILITY IN MILES
HX     - HEAT INDEX IN FAHRENHEIT
WCI    - WIND CHILL INDEX IN FAHRENHEIT
TC     - TEMPERATURE IN CELSIUS WHICH IS ALSO KNOWN AS
         TEMPERATURE IN CENTIGRADE
AFB    - AIR FORCE BASE
         LUKE AFB IS LUKE AIR FORCE BASE
         DAVIS-MONTHAN IS DAVIS-MONTHAN AIR FORCE BASE
NAS    - NAVAL AIR STATION
         EL CENTRO NAS IS EL CENTRO NAVAL AIR STATION
N/A    - NOT AVAILABLE




USA.gov is the U.S. government's official web portal to all federal, state and local government web resources and services.